EW2964 Weather Reports


Display with metric or nautical units.
time (UTC)temp
F
wind
direction
speed
MPH
gust
MPH
rain 1hr
in
rain 24hr
in
rain mn
in
humidity
%
barometer
mb
20260508033510 40 319 1.0 6.0 0.00 0.03 0.03 84 1014.7
20260508033026 41 304 2.0 6.0 0.00 0.03 0.03 83 1014.7
20260508032508 41 284 3.0 6.0 0.00 0.03 0.03 82 1014.6
20260508032006 41 269 3.0 6.0 0.00 0.03 0.03 82 1014.6
20260508031514 41 319 2.0 7.0 0.00 0.03 0.03 82 1014.5
20260508031007 41 238 3.0 7.0 0.00 0.03 0.03 82 1014.4
20260508030506 41 300 3.0 6.0 0.00 0.03 0.03 82 1014.4
20260508030017 41 264 2.0 6.0 0.00 0.03 0.03 82 1014.4
20260508025506 41 315 3.0 5.0 0.00 0.03 0.03 82 1014.5
20260508025006 42 248 2.0 5.0 0.00 0.03 0.03 82 1014.3
20260508024527 42 332 1.0 5.0 0.00 0.03 0.03 82 1014.3
20260508024008 42 323 2.0 5.0 0.00 0.03 0.03 82 1014.2
20260508023506 42 308 3.0 5.0 0.00 0.03 0.03 83 1014.1
20260508023034 42 298 2.0 5.0 0.00 0.03 0.03 82 1014.1
20260508022510 42 320 2.0 5.0 0.00 0.03 0.03 83 1014.0
20260508022013 42 273 1.0 4.0 0.00 0.03 0.03 83 1013.9
20260508021527 43 299 1.0 3.0 0.00 0.03 0.03 82 1013.9
20260508021009 43 298 1.0 4.0 0.00 0.03 0.03 81 1013.9
20260508020505 43 298 1.0 4.0 0.00 0.03 0.03 81 1013.8
20260508020013 43 303 2.0 4.0 0.00 0.03 0.03 80 1013.8
20260508015502 44 277 1.0 3.0 0.00 0.03 0.03 79 1013.7
20260508015005 44 316 1.0 4.0 0.00 0.03 0.03 78 1013.7
20260508014503 44 316 2.0 4.0 0.00 0.03 0.03 77 1013.7
20260508014004 45 324 1.0 4.0 0.00 0.03 0.03 77 1013.6
20260508013504 45 316 2.0 4.0 0.00 0.03 0.03 75 1013.5
20260508013004 46 319 1.0 4.0 0.00 0.03 0.03 73 1013.4
20260508012505 46 302 1.0 4.0 0.00 0.03 0.03 73 1013.3
20260508012004 47 297 0.0 4.0 0.00 0.03 0.03 71 1013.2
20260508011505 47 321 2.0 4.0 0.00 0.03 0.03 70 1013.2
20260508011006 48 314 1.0 3.0 0.00 0.03 0.03 69 1013.1
20260508010503 48 284 0.0 3.0 0.00 0.03 0.03 68 1013.0
20260508010011 48 313 2.0 4.0 0.00 0.03 0.03 65 1012.9
20260508005502 49 313 2.0 4.0 0.00 0.03 0.03 64 1012.9
20260508005005 49 313 1.0 4.0 0.00 0.03 0.03 63 1012.8
20260508004509 50 322 0.0 4.0 0.00 0.03 0.03 62 1012.8
20260508004008 50 322 1.0 4.0 0.00 0.03 0.03 61 1012.8
20260508003505 51 294 0.0 3.0 0.00 0.03 0.03 59 1012.7
20260508003011 51 294 1.0 3.0 0.00 0.03 0.03 56 1012.6
20260508002502 52 323 1.0 7.0 0.00 0.04 0.03 56 1012.5
20260508002005 53 323 1.0 7.0 0.00 0.04 0.03 52 1012.4
20260508001504 53 305 0.0 9.0 0.00 0.04 0.03 51 1012.4
20260508001021 53 225 3.0 9.0 0.00 0.04 0.03 50 1012.3
20260508000502 53 311 2.0 12.0 0.00 0.04 0.03 51 1012.4
20260508000009 53 298 7.0 12.0 0.00 0.04 0.03 48 1012.2
20260507235503 53 296 6.0 12.0 0.00 0.04 0.03 48 1012.2
20260507235003 53 306 6.0 13.0 0.00 0.04 0.03 48 1012.2
20260507234517 54 300 5.0 14.0 0.00 0.04 0.03 48 1012.1
20260507234003 54 322 7.0 14.0 0.00 0.05 0.03 47 1012.0
20260507233503 54 307 9.0 14.0 0.00 0.05 0.03 47 1011.9
20260507233012 54 304 8.0 14.0 0.00 0.05 0.03 48 1011.9
20260507232510 55 352 7.0 14.0 0.00 0.05 0.03 47 1011.8
20260507232005 55 296 7.0 11.0 0.00 0.05 0.03 47 1011.8
20260507231513 56 301 4.0 12.0 0.00 0.05 0.03 47 1011.7
20260507231002 55 308 5.0 13.0 0.00 0.05 0.03 47 1011.7
20260507230502 55 309 6.0 14.0 0.00 0.05 0.03 48 1011.7
20260507230005 55 310 7.0 15.0 0.00 0.05 0.03 49 1011.6
20260507225504 55 311 7.0 16.0 0.00 0.05 0.03 47 1011.7
20260507225008 56 306 10.0 16.0 0.00 0.05 0.03 47 1011.6
20260507224514 56 340 6.0 16.0 0.00 0.05 0.03 47 1011.6
20260507224004 56 286 10.0 16.0 0.00 0.05 0.03 46 1011.6
20260507223504 56 287 7.0 21.0 0.00 0.05 0.03 46 1011.4
20260507223014 56 336 9.0 21.0 0.00 0.05 0.03 47 1011.4
20260507222507 56 317 11.0 18.0 0.00 0.05 0.03 45 1011.5
20260507222006 57 250 12.0 18.0 0.00 0.05 0.03 45 1011.4
20260507221516 57 309 8.0 20.0 0.00 0.05 0.03 46 1011.2
20260507221006 57 309 12.0 20.0 0.00 0.05 0.03 46 1011.2
20260507220506 57 312 10.0 20.0 0.00 0.05 0.03 47 1011.2
20260507220016 57 325 3.0 16.0 0.00 0.05 0.03 50 1011.2
20260507215509 57 339 9.0 16.0 0.00 0.05 0.03 47 1011.1
20260507215006 57 301 7.0 15.0 0.00 0.05 0.03 47 1011.0
20260507214506 57 302 7.0 14.0 0.00 0.05 0.03 47 1010.9
20260507214004 57 336 6.0 13.0 0.00 0.05 0.03 48 1010.9
20260507213505 57 319 3.0 15.0 0.00 0.05 0.03 52 1011.0
20260507213009 56 325 7.0 16.0 0.00 0.05 0.03 49 1010.9
20260507212506 56 325 10.0 17.0 0.00 0.05 0.03 48 1010.9
20260507212006 57 338 10.0 17.0 0.00 0.05 0.03 47 1010.8
20260507211514 57 276 4.0 13.0 0.00 0.05 0.03 51 1010.7
20260507211006 56 332 6.0 13.0 0.00 0.05 0.03 49 1010.6
20260507210505 56 325 5.0 17.0 0.00 0.05 0.03 49 1010.6
20260507210018 55 297 9.0 17.0 0.00 0.05 0.03 49 1010.7
20260507205509 56 360 8.0 14.0 0.00 0.05 0.03 50 1010.6
20260507205008 56 334 6.0 20.0 0.00 0.05 0.03 50 1010.6
20260507204518 56 335 11.0 20.0 0.00 0.05 0.03 50 1010.6
20260507204006 56 130 2.0 10.0 0.00 0.05 0.03 52 1010.6
20260507203508 56 324 3.0 10.0 0.00 0.05 0.03 51 1010.6
20260507203010 56 32 4.0 9.0 0.00 0.05 0.03 54 1010.7
20260507202502 56 23 3.0 16.0 0.00 0.05 0.03 53 1010.7
20260507202007 56 360 3.0 16.0 0.00 0.05 0.03 53 1010.8
20260507201521 57 326 6.0 15.0 0.00 0.06 0.03 52 1010.8
20260507201009 57 329 4.0 20.0 0.00 0.06 0.03 53 1010.7
20260507200506 57 5 8.0 20.0 0.00 0.06 0.03 50 1010.7
20260507200030 57 322 9.0 13.0 0.00 0.06 0.03 53 1010.8
20260507195505 56 340 5.0 11.0 0.00 0.06 0.03 52 1011.0
20260507195008 57 352 4.0 15.0 0.00 0.06 0.03 53 1011.0
20260507194524 58 298 7.0 18.0 0.00 0.06 0.03 54 1011.0
20260507194009 58 153 4.0 18.0 0.00 0.06 0.03 49 1010.9
20260507193509 58 296 10.0 14.0 0.00 0.06 0.03 53 1011.0
20260507193027 58 300 8.0 16.0 0.00 0.06 0.03 50 1010.9
20260507192508 57 242 8.0 16.0 0.00 0.06 0.03 50 1010.9
20260507192008 57 340 8.0 18.0 0.00 0.06 0.03 51 1011.0
20260507191510 57 299 9.0 18.0 0.00 0.06 0.03 51 1011.1
20260507191006 56 288 10.0 18.0 0.00 0.06 0.03 53 1011.1
20260507190506 56 304 11.0 17.0 0.00 0.06 0.03 55 1011.1
20260507190031 56 317 5.0 15.0 0.00 0.06 0.03 52 1011.0
20260507185506 56 247 7.0 16.0 0.00 0.06 0.03 54 1011.0
20260507185010 57 264 9.0 16.0 0.00 0.06 0.03 55 1011.2
20260507184533 57 311 7.0 15.0 0.00 0.06 0.03 56 1011.4
20260507184006 56 344 10.0 15.0 0.00 0.06 0.03 55 1011.5
20260507183509 56 338 6.0 16.0 0.00 0.06 0.03 59 1011.5
20260507183026 55 317 4.0 18.0 0.00 0.06 0.03 56 1011.3
20260507182510 56 317 10.0 18.0 0.00 0.06 0.03 59 1011.5
20260507182011 55 296 7.0 16.0 0.00 0.06 0.03 58 1011.4
20260507181524 56 314 10.0 16.0 0.00 0.06 0.03 56 1011.4
20260507181006 56 336 10.0 16.0 0.00 0.06 0.03 57 1011.2
20260507180506 56 9 7.0 14.0 0.00 0.06 0.03 58 1011.2
20260507180014 55 305 6.0 19.0 0.00 0.06 0.03 57 1011.3
20260507175504 55 327 9.0 19.0 0.00 0.06 0.03 61 1011.3
20260507175003 55 327 6.0 14.0 0.00 0.06 0.03 59 1011.3
20260507174503 55 346 7.0 12.0 0.00 0.06 0.03 60 1011.4
20260507174003 55 352 5.0 10.0 0.00 0.06 0.03 59 1011.4
20260507173505 55 314 4.0 15.0 0.00 0.06 0.03 60 1011.4
20260507173004 55 346 5.0 16.0 0.00 0.06 0.03 58 1011.6
20260507172503 55 325 8.0 16.0 0.00 0.06 0.03 58 1011.7
20260507172002 54 326 2.0 12.0 0.00 0.06 0.03 62 1011.7
20260507171507 54 311 5.0 13.0 0.00 0.06 0.03 60 1011.9
20260507171003 54 325 8.0 13.0 0.00 0.06 0.03 61 1012.0
20260507170503 53 360 2.0 11.0 0.00 0.06 0.03 63 1012.0
20260507170015 53 28 5.0 15.0 0.00 0.06 0.03 61 1012.2
20260507165504 53 5 4.0 15.0 0.00 0.06 0.03 63 1012.3
20260507165002 53 331 8.0 13.0 0.00 0.06 0.03 64 1012.3
20260507164503 53 335 9.0 13.0 0.00 0.06 0.03 61 1012.3
20260507164004 53 346 5.0 9.0 0.00 0.06 0.03 63 1012.4
20260507163503 53 278 4.0 9.0 0.00 0.06 0.03 64 1012.4
20260507163003 53 319 2.0 11.0 0.00 0.06 0.03 64 1012.5
20260507162503 52 360 6.0 11.0 0.00 0.06 0.03 64 1012.7
20260507162003 52 283 3.0 11.0 0.00 0.06 0.03 64 1012.7
20260507161504 52 305 6.0 12.0 0.00 0.06 0.03 66 1012.8
20260507161003 52 352 5.0 12.0 0.00 0.06 0.03 62 1012.8
20260507160504 52 321 3.0 11.0 0.00 0.06 0.03 64 1012.8
20260507160009 52 309 5.0 12.0 0.00 0.06 0.03 63 1012.8
20260507155505 52 317 2.0 12.0 0.00 0.06 0.03 64 1012.8
20260507155007 52 306 8.0 11.0 0.00 0.06 0.03 63 1012.8
20260507154515 52 254 1.0 6.0 0.00 0.06 0.03 62 1012.8
20260507154003 52 252 2.0 10.0 0.00 0.06 0.03 62 1012.8
20260507153504 52 261 2.0 10.0 0.00 0.06 0.03 65 1012.9
20260507153005 52 18 1.0 10.0 0.00 0.06 0.03 62 1012.8
20260507152503 52 329 3.0 9.0 0.00 0.06 0.03 64 1012.8
20260507152003 51 5 2.0 9.0 0.00 0.06 0.03 65 1012.9
20260507151503 51 158 3.0 9.0 0.00 0.06 0.03 65 1013.0
20260507151003 50 247 1.0 9.0 0.00 0.06 0.03 66 1013.0
20260507150503 51 346 4.0 9.0 0.00 0.06 0.03 67 1013.0
20260507150011 51 333 2.0 6.0 0.00 0.06 0.03 65 1013.0
20260507145510 50 316 0.0 10.0 0.00 0.06 0.03 66 1013.2
20260507145003 50 5 2.0 10.0 0.00 0.06 0.03 66 1013.3
20260507144511 50 316 6.0 11.0 0.00 0.06 0.03 63 1013.3
20260507144005 51 300 5.0 11.0 0.00 0.06 0.03 62 1013.3
20260507143511 51 341 2.0 8.0 0.00 0.06 0.03 68 1013.2
20260507143015 50 39 4.0 8.0 0.00 0.06 0.03 71 1013.4
20260507142505 50 335 3.0 9.0 0.00 0.06 0.03 70 1013.5
20260507142006 50 335 5.0 11.0 0.00 0.06 0.03 69 1013.6
20260507141503 50 315 7.0 11.0 0.00 0.06 0.03 71 1013.5
20260507141007 50 311 1.0 4.0 0.00 0.06 0.03 75 1013.5
20260507140503 50 323 1.0 5.0 0.00 0.06 0.03 77 1013.6
20260507140005 49 211 3.0 5.0 0.00 0.06 0.03 80 1013.6
20260507135503 49 26 2.0 4.0 0.00 0.06 0.03 79 1013.6
20260507135003 49 205 0.0 4.0 0.00 0.06 0.03 80 1013.5
20260507134512 49 319 2.0 4.0 0.00 0.06 0.03 80 1013.7
20260507134002 49 318 2.0 4.0 0.00 0.06 0.03 83 1013.7
20260507133503 48 124 1.0 4.0 0.00 0.06 0.03 84 1013.7
20260507133014 48 69 0.0 3.0 0.00 0.06 0.03 86 1013.9
20260507132506 47 139 0.0 3.0 0.00 0.06 0.03 86 1013.9
20260507132010 47 126 1.0 3.0 0.00 0.06 0.03 86 1014.0
20260507131521 47 302 0.0 3.0 0.00 0.06 0.03 86 1014.1
20260507131006 47 125 0.0 2.0 0.00 0.06 0.03 88 1014.1
20260507130507 46 125 0.0 2.0 0.00 0.07 0.03 89 1014.2
20260507130008 46 186 0.0 2.0 0.00 0.07 0.03 87 1014.2
20260507125502 46 186 0.0 3.0 0.00 0.07 0.03 90 1014.3
20260507125003 46 198 1.0 3.0 0.00 0.08 0.03 91 1014.3
20260507124507 46 324 0.0 1.0 0.00 0.08 0.03 93 1014.3
20260507124011 46 324 0.0 1.0 0.00 0.09 0.03 93 1014.4
20260507123510 45 324 0.0 3.0 0.00 0.09 0.03 93 1014.4
20260507123010 45 324 0.0 3.0 0.00 0.09 0.03 94 1014.5
20260507122503 45 324 0.0 3.0 0.00 0.09 0.03 94 1014.5
20260507122009 45 319 0.0 0.0 0.00 0.10 0.03 94 1014.6
20260507121537 45 319 0.0 2.0 0.00 0.10 0.03 94 1014.5
20260507121007 45 319 0.0 3.0 0.00 0.12 0.03 95 1014.5
20260507120507 45 319 1.0 3.0 0.00 0.12 0.03 94 1014.5
20260507120021 45 262 0.0 0.0 0.00 0.14 0.03 94 1014.4
20260507115506 45 186 0.0 0.0 0.00 0.15 0.03 94 1014.4
20260507115010 45 159 0.0 0.0 0.00 0.16 0.03 94 1014.4
20260507114504 45 48 0.0 0.0 0.00 0.17 0.03 94 1014.2
20260507114003 45 48 0.0 0.0 0.00 0.20 0.03 94 1014.1
20260507113502 45 48 0.0 0.0 0.00 0.21 0.03 94 1014.0
20260507113008 45 156 0.0 0.0 0.00 0.23 0.03 94 1013.9
20260507112503 45 156 0.0 0.0 0.00 0.24 0.03 94 1013.8
20260507112004 45 156 0.0 0.0 0.00 0.24 0.03 94 1013.8
20260507111522 45 156 0.0 2.0 0.00 0.25 0.03 94 1013.8
20260507111008 45 156 0.0 3.0 0.00 0.25 0.03 94 1013.8
20260507110509 45 156 1.0 3.0 0.00 0.26 0.03 93 1013.8
20260507110027 45 175 1.0 3.0 0.00 0.26 0.03 94 1013.6
20260507105508 45 185 1.0 2.0 0.00 0.26 0.03 94 1013.6
20260507105007 45 184 0.0 2.0 0.00 0.27 0.03 94 1013.5
20260507104520 45 184 0.0 2.0 0.00 0.27 0.03 93 1013.5
20260507104008 45 184 1.0 3.0 0.00 0.28 0.03 93 1013.4
20260507103508 45 183 1.0 6.0 0.00 0.29 0.03 94 1013.5
20260507103027 45 210 2.0 6.0 0.00 0.30 0.03 93 1013.4
20260507102512 45 148 2.0 5.0 0.00 0.31 0.03 93 1013.4
20260507102007 45 209 0.0 3.0 0.00 0.32 0.03 93 1013.4
20260507101508 45 213 1.0 4.0 0.01 0.34 0.03 92 1013.4
20260507101004 45 266 1.0 6.0 0.01 0.34 0.03 92 1013.3
20260507100503 45 287 2.0 10.0 0.01 0.36 0.03 92 1013.3
20260507100032 45 325 2.0 10.0 0.01 0.37 0.03 92 1013.3
20260507095008 45 323 3.0 11.0 0.01 0.41 0.03 93 1013.3
20260507094522 45 301 6.0 13.0 0.01 0.42 0.03 93 1013.3
20260507094007 45 311 5.0 13.0 0.01 0.43 0.03 93 1013.1
20260507093507 45 296 6.0 12.0 0.01 0.44 0.03 93 1013.1
20260507093035 45 294 8.0 12.0 0.02 0.44 0.03 94 1013.0
20260507092507 46 310 4.0 7.0 0.02 0.44 0.03 95 1013.0
20260507092011 46 9 4.0 10.0 0.02 0.44 0.03 95 1012.8
20260507091528 46 326 4.0 10.0 0.01 0.43 0.02 96 1013.0
20260507091009 46 5 2.0 7.0 0.01 0.43 0.02 97 1013.0
20260507090508 46 159 0.0 0.0 0.01 0.43 0.02 97 1012.9
20260507090030 46 159 0.0 0.0 0.01 0.43 0.02 97 1013.0
20260507085507 46 159 0.0 0.0 0.01 0.43 0.02 96 1013.2
20260507085004 46 159 0.0 0.0 0.01 0.43 0.02 97 1013.2
20260507084504 46 126 0.0 0.0 0.01 0.43 0.02 97 1013.2
20260507084013 46 126 0.0 0.0 0.01 0.43 0.02 97 1013.0
20260507083504 46 126 0.0 0.0 0.01 0.43 0.02 97 1013.0
20260507083048 46 126 0.0 0.0 0.00 0.42 0.01 96 1013.0
20260507082543 46 126 0.0 2.0 0.00 0.42 0.01 96 1012.9
20260507082009 46 126 0.0 2.0 0.00 0.42 0.01 96 1012.8
20260507081515 46 126 1.0 2.0 0.00 0.42 0.01 96 1013.0
20260507081010 46 126 0.0 2.0 0.00 0.42 0.01 96 1013.0
20260507080507 46 124 1.0 2.0 0.00 0.42 0.01 96 1013.1
20260507080033 46 124 0.0 2.0 0.00 0.42 0.01 96 1013.2
20260507075509 46 124 0.0 2.0 0.00 0.42 0.01 96 1013.3
20260507075006 46 122 1.0 2.0 0.00 0.42 0.01 96 1013.2
20260507074529 46 123 0.0 3.0 0.00 0.42 0.01 96 1013.0
20260507074007 46 123 2.0 3.0 0.00 0.42 0.01 96 1013.0
20260507073512 46 116 0.0 3.0 0.00 0.42 0.01 96 1013.1
20260507073005 47 117 1.0 3.0 0.00 0.42 0.01 96 1013.1
20260507072504 47 87 0.0 3.0 0.00 0.42 0.01 96 1013.2
20260507072006 47 115 1.0 3.0 0.00 0.42 0.01 96 1013.2
20260507071512 47 98 0.0 2.0 0.00 0.42 0.01 96 1013.1
20260507071003 47 94 0.0 0.0 0.00 0.42 0.01 96 1013.2
20260507070504 47 94 0.0 0.0 0.00 0.42 0.01 95 1013.0
20260507070013 47 94 0.0 0.0 0.00 0.42 0.01 95 1013.0
20260507065507 47 125 0.0 2.0 0.00 0.42 0.01 96 1012.9
20260507065005 47 133 0.0 3.0 0.00 0.42 0.01 95 1013.0
20260507064516 47 94 1.0 3.0 0.00 0.42 0.01 94 1013.0
20260507064007 47 131 0.0 3.0 0.00 0.42 0.01 94 1013.1
20260507063508 47 125 1.0 2.0 0.00 0.42 0.01 94 1013.1
20260507063020 47 84 0.0 2.0 0.00 0.42 0.01 94 1013.2
20260507062510 47 84 0.0 3.0 0.00 0.42 0.01 94 1013.0
20260507061536 47 53 0.0 2.0 0.00 0.42 0.01 93 1013.1
20260507061006 47 352 0.0 0.0 0.00 0.42 0.01 93 1013.2
20260507060504 47 352 0.0 0.0 0.00 0.42 0.01 93 1013.3
20260507060007 48 30 0.0 3.0 0.00 0.42 0.01 93 1013.5
20260507055503 48 30 0.0 4.0 0.01 0.42 0.01 92 1013.6
20260507055009 48 49 1.0 4.0 0.01 0.42 0.01 93 1013.6
20260507054511 48 45 1.0 3.0 0.01 0.42 0.01 93 1013.6
20260507053507 48 38 0.0 8.0 0.01 0.42 0.01 93 1013.9
20260507053016 48 304 1.0 8.0 0.01 0.42 0.01 92 1013.8
20260507052506 48 298 2.0 5.0 0.01 0.42 0.01 92 1013.8
20260507052006 48 273 2.0 7.0 0.01 0.42 0.01 93 1013.7
20260507051521 48 323 2.0 8.0 0.01 0.42 0.01 92 1013.8
20260507051010 48 265 3.0 12.0 0.01 0.42 0.01 91 1013.7
20260507050507 49 283 1.0 12.0 0.01 0.42 0.01 92 1013.8
20260507050021 49 319 7.0 12.0 0.01 0.42 0.01 91 1013.6
20260507045503 49 328 4.0 12.0 0.00 0.41 0.00 91 1013.5
20260507045004 49 311 5.0 12.0 0.00 0.41 0.00 91 1013.7
20260507044505 50 5 2.0 6.0 0.00 0.41 0.00 93 1013.4
20260507044003 50 323 1.0 4.0 0.00 0.41 0.00 94 1013.3
20260507043503 50 326 0.0 3.0 0.00 0.41 0.00 93 1013.2
20260507043012 50 238 0.0 3.0 0.00 0.41 0.00 93 1013.4
20260507042506 50 238 1.0 3.0 0.00 0.41 0.00 93 1013.1
20260507042009 50 238 1.0 3.0 0.00 0.41 0.00 93 1012.9
20260507041519 50 324 0.0 3.0 0.00 0.41 0.00 92 1012.9
20260507041007 50 331 1.0 3.0 0.00 0.41 0.00 92 1013.0
20260507040507 51 225 0.0 2.0 0.00 0.41 0.00 92 1012.9
20260507040021 51 157 0.0 4.0 0.00 0.41 0.00 91 1013.0
20260507035507 51 332 0.0 4.0 0.00 0.41 0.41 91 1012.9
20260507035007 51 336 1.0 4.0 0.00 0.41 0.41 91 1013.0
20260507034526 51 201 1.0 4.0 0.00 0.41 0.41 92 1013.1
20260507034007 51 352 0.0 4.0 0.00 0.41 0.41 91 1013.1